Time,TemperatureF,DewpointF,PressureIn,WindDirection,WindDirectionDegrees,WindSpeedMPH,WindSpeedGustMPH,Humidity,HourlyPrecipIn,Conditions,Clouds,dailyrainin,SoftwareType,DateUTC
2013-06-26 00:00:00,58.0,-99.9,-100.00,WSW,257,3.0,4.0,-999,-99.99,,,-99.99,,2013-06-26 07:00:00,
2013-06-26 00:02:00,59.0,-99.9,-100.00,SE,134,1.0,1.0,-999,-99.99,,,-99.99,,2013-06-26 07:02:00,
2013-06-26 00:43:00,58.0,-99.9,-100.00,WSW,257,3.0,4.0,-999,-99.99,,,-99.99,,2013-06-26 07:43:00,
2013-06-26 00:53:00,58.0,-99.9,-100.00,WSW,257,3.0,4.0,-999,-99.99,,,-99.99,,2013-06-26 07:53:00,
2013-06-26 01:43:00,58.0,-99.9,-100.00,WSW,256,2.0,3.0,-999,-99.99,,,-99.99,,2013-06-26 08:43:00,
2013-06-26 01:53:00,56.0,-99.9,-100.00,WSW,248,4.0,5.0,-999,-99.99,,,-99.99,,2013-06-26 08:53:00,
2013-06-26 02:00:00,56.0,-99.9,-100.00,WSW,250,3.0,4.0,-999,-99.99,,,-99.99,,2013-06-26 09:00:00,
2013-06-26 02:11:00,57.0,-99.9,-100.00,SW,228,4.0,6.0,-999,-99.99,,,-99.99,,2013-06-26 09:11:00,
2013-06-26 02:23:00,57.0,-99.9,-100.00,SW,228,4.0,6.0,-999,-99.99,,,-99.99,,2013-06-26 09:23:00,
2013-06-26 02:43:00,56.0,-99.9,-100.00,WSW,250,3.0,4.0,-999,-99.99,,,-99.99,,2013-06-26 09:43:00,
2013-06-26 02:53:00,56.0,-99.9,-100.00,WSW,250,3.0,4.0,-999,-99.99,,,-99.99,,2013-06-26 09:53:00,
2013-06-26 03:20:00,56.0,-99.9,-100.00,West,276,2.0,3.0,-999,-99.99,,,-99.99,,2013-06-26 10:20:00,
2013-06-26 03:34:00,58.0,-99.9,-100.00,West,274,5.0,5.0,-999,-99.99,,,-99.99,,2013-06-26 10:34:00,
2013-06-26 03:43:00,58.0,-99.9,-100.00,West,274,5.0,5.0,-999,-99.99,,,-99.99,,2013-06-26 10:43:00,
2013-06-26 03:53:00,58.0,-99.9,-100.00,West,274,5.0,5.0,-999,-99.99,,,-99.99,,2013-06-26 10:53:00,
2013-06-26 04:12:00,56.0,-99.9,-100.00,West,276,2.0,3.0,-999,-99.99,,,-99.99,,2013-06-26 11:12:00,
2013-06-26 04:44:00,56.0,-99.9,-100.00,WSW,238,2.0,4.0,-999,-99.99,,,-99.99,,2013-06-26 11:44:00,
2013-06-26 04:52:00,58.0,-99.9,-100.00,West,278,4.0,4.0,-999,-99.99,,,-99.99,,2013-06-26 11:52:00,
2013-06-26 05:12:00,56.0,-99.9,-100.00,West,274,1.0,3.0,-999,-99.99,,,-99.99,,2013-06-26 12:12:00,
2013-06-26 05:22:00,56.0,-99.9,-100.00,West,274,1.0,3.0,-999,-99.99,,,-99.99,,2013-06-26 12:22:00,
2013-06-26 05:43:00,57.0,-99.9,-100.00,West,280,2.0,2.0,-999,-99.99,,,-99.99,,2013-06-26 12:43:00,
2013-06-26 05:52:00,56.0,-99.9,-100.00,West,267,6.0,6.0,-999,-99.99,,,-99.99,,2013-06-26 12:52:00,
2013-06-26 06:02:00,56.0,-99.9,-100.00,West,267,6.0,6.0,-999,-99.99,,,-99.99,,2013-06-26 13:02:00,
2013-06-26 06:10:00,57.0,-99.9,-100.00,West,270,2.0,5.0,-999,-99.99,,,-99.99,,2013-06-26 13:10:00,
2013-06-26 06:11:00,56.0,-99.9,-100.00,West,267,6.0,6.0,-999,-99.99,,,-99.99,,2013-06-26 13:11:00,
2013-06-26 06:43:00,57.0,-99.9,-100.00,WNW,295,2.0,2.0,-999,-99.99,,,-99.99,,2013-06-26 13:43:00,
2013-06-26 06:53:00,57.0,-99.9,-100.00,West,270,2.0,5.0,-999,-99.99,,,-99.99,,2013-06-26 13:53:00,
2013-06-26 07:00:00,56.0,-99.9,-100.00,West,260,4.0,6.0,-999,-99.99,,,-99.99,,2013-06-26 14:00:00,
2013-06-26 07:02:00,57.0,-99.9,-100.00,West,270,2.0,5.0,-999,-99.99,,,-99.99,,2013-06-26 14:02:00,
2013-06-26 07:42:00,56.0,-99.9,-100.00,West,260,4.0,6.0,-999,-99.99,,,-99.99,,2013-06-26 14:42:00,
2013-06-26 07:53:00,56.0,-99.9,-100.00,West,260,4.0,6.0,-999,-99.99,,,-99.99,,2013-06-26 14:53:00,
2013-06-26 08:00:00,60.0,-99.9,-100.00,WSW,256,3.0,4.0,-999,-99.99,,,-99.99,,2013-06-26 15:00:00,
2013-06-26 08:44:00,60.0,-99.9,-100.00,WSW,256,3.0,4.0,-999,-99.99,,,-99.99,,2013-06-26 15:44:00,
2013-06-26 08:53:00,60.0,-99.9,-100.00,WSW,256,3.0,4.0,-999,-99.99,,,-99.99,,2013-06-26 15:53:00,
2013-06-26 09:00:00,58.0,-99.9,-100.00,WNW,283,2.0,3.0,-999,-99.99,,,-99.99,,2013-06-26 16:00:00,
2013-06-26 09:43:00,58.0,-99.9,-100.00,WNW,283,2.0,3.0,-999,-99.99,,,-99.99,,2013-06-26 16:43:00,
2013-06-26 09:52:00,58.0,-99.9,-100.00,WNW,283,2.0,3.0,-999,-99.99,,,-99.99,,2013-06-26 16:52:00,
2013-06-26 10:43:00,60.0,-99.9,-100.00,West,276,1.0,2.0,-999,-99.99,,,-99.99,,2013-06-26 17:43:00,
2013-06-26 10:52:00,60.0,-99.9,-100.00,SW,218,3.0,3.0,-999,-99.99,,,-99.99,,2013-06-26 17:52:00,
2013-06-26 11:00:00,63.0,-99.9,-100.00,WSW,253,0.0,2.0,-999,-99.99,,,-99.99,,2013-06-26 18:00:00,
2013-06-26 11:01:00,60.0,-99.9,-100.00,SW,218,3.0,3.0,-999,-99.99,,,-99.99,,2013-06-26 18:01:00,
2013-06-26 11:22:00,60.0,-99.9,-100.00,West,273,2.0,4.0,-999,-99.99,,,-99.99,,2013-06-26 18:22:00,
2013-06-26 11:43:00,63.0,-99.9,-100.00,WSW,253,0.0,2.0,-999,-99.99,,,-99.99,,2013-06-26 18:43:00,
2013-06-26 11:52:00,63.0,-99.9,-100.00,WSW,253,0.0,2.0,-999,-99.99,,,-99.99,,2013-06-26 18:52:00,
2013-06-26 12:00:00,62.0,-99.9,-100.00,WSW,238,3.0,5.0,-999,-99.99,,,-99.99,,2013-06-26 19:00:00,
2013-06-26 12:43:00,62.0,-99.9,-100.00,WSW,238,3.0,5.0,-999,-99.99,,,-99.99,,2013-06-26 19:43:00,
2013-06-26 12:52:00,62.0,-99.9,-100.00,WSW,238,3.0,5.0,-999,-99.99,,,-99.99,,2013-06-26 19:52:00,
2013-06-26 13:34:00,63.0,-99.9,-100.00,North,353,2.0,4.0,-999,-99.99,,,-99.99,,2013-06-26 20:34:00,
2013-06-26 13:43:00,63.0,-99.9,-100.00,North,353,2.0,4.0,-999,-99.99,,,-99.99,,2013-06-26 20:43:00,
2013-06-26 13:53:00,63.0,-99.9,-100.00,North,353,2.0,4.0,-999,-99.99,,,-99.99,,2013-06-26 20:53:00,
2013-06-26 14:02:00,67.0,-99.9,-100.00,NNE,17,3.0,3.0,-999,-99.99,,,-99.99,,2013-06-26 21:02:00,
2013-06-26 14:12:00,67.0,-99.9,-100.00,NNE,17,3.0,3.0,-999,-99.99,,,-99.99,,2013-06-26 21:12:00,
2013-06-26 14:23:00,67.0,-99.9,-100.00,NNE,17,3.0,3.0,-999,-99.99,,,-99.99,,2013-06-26 21:23:00,
2013-06-26 14:43:00,69.0,-99.9,-100.00,West,281,4.0,11.0,-999,-99.99,,,-99.99,,2013-06-26 21:43:00,
2013-06-26 14:52:00,69.0,-99.9,-100.00,West,281,4.0,11.0,-999,-99.99,,,-99.99,,2013-06-26 21:52:00,
2013-06-26 15:11:00,69.0,-99.9,-100.00,West,261,4.0,6.0,-999,-99.99,,,-99.99,,2013-06-26 22:11:00,
2013-06-26 15:22:00,71.0,-99.9,-100.00,West,275,5.0,11.0,-999,-99.99,,,-99.99,,2013-06-26 22:22:00,
2013-06-26 15:43:00,72.0,-99.9,-100.00,NW,304,7.0,16.0,-999,-99.99,,,-99.99,,2013-06-26 22:43:00,
2013-06-26 15:52:00,72.0,-99.9,-100.00,NW,304,7.0,16.0,-999,-99.99,,,-99.99,,2013-06-26 22:52:00,
2013-06-26 16:02:00,68.0,-99.9,-100.00,West,279,7.0,15.0,-999,-99.99,,,-99.99,,2013-06-26 23:02:00,
2013-06-26 16:12:00,68.0,-99.9,-100.00,West,279,7.0,15.0,-999,-99.99,,,-99.99,,2013-06-26 23:12:00,
2013-06-26 16:22:00,68.0,-99.9,-100.00,West,279,7.0,15.0,-999,-99.99,,,-99.99,,2013-06-26 23:22:00,
2013-06-26 16:43:00,69.0,-99.9,-100.00,SW,232,6.0,13.0,-999,-99.99,,,-99.99,,2013-06-26 23:43:00,
2013-06-26 16:53:00,69.0,-99.9,-100.00,West,281,9.0,15.0,-999,-99.99,,,-99.99,,2013-06-26 23:53:00,
2013-06-26 17:01:00,69.0,-99.9,-100.00,West,281,9.0,15.0,-999,-99.99,,,-99.99,,2013-06-27 00:01:00,
2013-06-26 17:20:00,70.0,-99.9,-100.00,SW,226,8.0,16.0,-999,-99.99,,,-99.99,,2013-06-27 00:20:00,
2013-06-26 17:43:00,70.0,-99.9,-100.00,West,273,10.0,12.0,-999,-99.99,,,-99.99,,2013-06-27 00:43:00,
2013-06-26 17:53:00,70.0,-99.9,-100.00,West,273,10.0,12.0,-999,-99.99,,,-99.99,,2013-06-27 00:53:00,
2013-06-26 18:00:00,72.0,-99.9,-100.00,WSW,238,6.0,11.0,-999,-99.99,,,-99.99,,2013-06-27 01:00:00,
2013-06-26 18:11:00,70.0,-99.9,-100.00,SW,226,8.0,16.0,-999,-99.99,,,-99.99,,2013-06-27 01:11:00,
2013-06-26 18:43:00,72.0,-99.9,-100.00,WSW,238,6.0,11.0,-999,-99.99,,,-99.99,,2013-06-27 01:43:00,
2013-06-26 18:53:00,72.0,-99.9,-100.00,WSW,238,6.0,11.0,-999,-99.99,,,-99.99,,2013-06-27 01:53:00,
2013-06-26 19:00:00,70.0,-99.9,-100.00,West,271,5.0,7.0,-999,-99.99,,,-99.99,,2013-06-27 02:00:00,
2013-06-26 19:32:00,70.0,-99.9,-100.00,West,271,5.0,7.0,-999,-99.99,,,-99.99,,2013-06-27 02:32:00,
2013-06-26 19:43:00,70.0,-99.9,-100.00,West,271,5.0,7.0,-999,-99.99,,,-99.99,,2013-06-27 02:43:00,
2013-06-26 19:52:00,70.0,-99.9,-100.00,West,271,5.0,7.0,-999,-99.99,,,-99.99,,2013-06-27 02:52:00,
2013-06-26 20:00:00,70.0,-99.9,-100.00,WSW,246,1.0,4.0,-999,-99.99,,,-99.99,,2013-06-27 03:00:00,
2013-06-26 20:22:00,71.0,-99.9,-100.00,West,264,5.0,8.0,-999,-99.99,,,-99.99,,2013-06-27 03:22:00,
2013-06-26 20:42:00,70.0,-99.9,-100.00,WSW,246,1.0,4.0,-999,-99.99,,,-99.99,,2013-06-27 03:42:00,
2013-06-26 20:52:00,70.0,-99.9,-100.00,WSW,246,1.0,4.0,-999,-99.99,,,-99.99,,2013-06-27 03:52:00,
2013-06-26 21:20:00,66.0,-99.9,-100.00,SSW,205,3.0,4.0,-999,-99.99,,,-99.99,,2013-06-27 04:20:00,
2013-06-26 21:22:00,68.0,-99.9,-100.00,WSW,240,1.0,4.0,-999,-99.99,,,-99.99,,2013-06-27 04:22:00,
2013-06-26 21:42:00,67.0,-99.9,-100.00,West,276,3.0,7.0,-999,-99.99,,,-99.99,,2013-06-27 04:42:00,
2013-06-26 21:53:00,67.0,-99.9,-100.00,West,276,3.0,7.0,-999,-99.99,,,-99.99,,2013-06-27 04:53:00,
2013-06-26 22:00:00,65.0,-99.9,-100.00,West,280,4.0,4.0,-999,-99.99,,,-99.99,,2013-06-27 05:00:00,
2013-06-26 22:12:00,66.0,-99.9,-100.00,SSW,205,3.0,4.0,-999,-99.99,,,-99.99,,2013-06-27 05:12:00,
2013-06-26 22:33:00,65.0,-99.9,-100.00,West,280,4.0,4.0,-999,-99.99,,,-99.99,,2013-06-27 05:33:00,
2013-06-26 22:42:00,65.0,-99.9,-100.00,West,280,4.0,4.0,-999,-99.99,,,-99.99,,2013-06-27 05:42:00,
2013-06-26 22:53:00,65.0,-99.9,-100.00,West,280,4.0,4.0,-999,-99.99,,,-99.99,,2013-06-27 05:53:00,
2013-06-26 23:00:00,64.0,-99.9,-100.00,West,260,2.0,3.0,-999,-99.99,,,-99.99,,2013-06-27 06:00:00,
2013-06-26 23:23:00,65.0,-99.9,-100.00,WSW,242,4.0,4.0,-999,-99.99,,,-99.99,,2013-06-27 06:23:00,
2013-06-26 23:43:00,64.0,-99.9,-100.00,West,260,2.0,3.0,-999,-99.99,,,-99.99,,2013-06-27 06:43:00,
2013-06-26 23:53:00,64.0,-99.9,-100.00,West,260,2.0,3.0,-999,-99.99,,,-99.99,,2013-06-27 06:53:00,